Time,TemperatureF,DewpointF,PressureIn,WindDirection,WindDirectionDegrees,WindSpeedMPH,WindSpeedGustMPH,Humidity,HourlyPrecipIn,Conditions,Clouds,dailyrainin,SolarRadiationWatts/m^2,SoftwareType,DateUTC
2013-07-25 00:00:00,68.0,65.6,29.84,NNE,12,2.0,4.0,92,0.00,RA,RA,0.00,0.0,WeatherDisplay:10.37,2013-07-25 04:00:00,
2013-07-25 00:05:00,67.9,65.5,29.84,North,6,1.0,5.0,92,0.00,RA,RA,0.00,0.0,WeatherDisplay:10.37,2013-07-25 04:05:00,
2013-07-25 00:15:00,67.8,65.4,29.84,North,353,0.0,2.0,92,0.00,CLR,CLR,0.00,0.0,WeatherDisplay:10.37,2013-07-25 04:15:00,
2013-07-25 00:20:00,67.9,65.8,29.84,NNE,12,2.0,5.0,93,0.00,CLR,CLR,0.00,0.0,WeatherDisplay:10.37,2013-07-25 04:20:00,
2013-07-25 00:25:00,68.0,65.9,29.84,North,9,2.0,6.0,93,0.00,CLR,CLR,0.00,0.0,WeatherDisplay:10.37,2013-07-25 04:25:00,
2013-07-25 00:30:00,68.1,66.0,29.85,North,7,2.0,4.0,93,0.00,CLR,CLR,0.00,0.0,WeatherDisplay:10.37,2013-07-25 04:30:00,
2013-07-25 00:36:00,68.1,66.0,29.85,North,8,1.0,4.0,93,0.00,CLR,CLR,0.00,0.0,WeatherDisplay:10.37,2013-07-25 04:36:00,
2013-07-25 00:41:00,68.3,66.2,29.85,North,3,1.0,3.0,93,0.00,CLR,CLR,0.00,0.0,WeatherDisplay:10.37,2013-07-25 04:41:00,
2013-07-25 00:46:00,68.4,66.3,29.84,North,359,1.0,4.0,93,0.00,CLR,CLR,0.00,0.0,WeatherDisplay:10.37,2013-07-25 04:46:00,
2013-07-25 00:51:00,68.4,66.3,29.84,North,9,0.0,5.0,93,0.00,CLR,CLR,0.00,0.0,WeatherDisplay:10.37,2013-07-25 04:51:00,
2013-07-25 00:56:00,68.5,66.4,29.84,NNE,22,1.0,2.0,93,0.00,CLR,CLR,0.00,0.0,WeatherDisplay:10.37,2013-07-25 04:56:00,
2013-07-25 01:01:00,68.7,66.6,29.84,NNE,14,1.0,5.0,93,0.00,CLR,CLR,0.00,0.0,WeatherDisplay:10.37,2013-07-25 05:01:00,
2013-07-25 01:06:00,68.9,66.8,29.84,North,6,2.0,7.0,93,0.00,BKN,BKN,0.00,0.0,WeatherDisplay:10.37,2013-07-25 05:06:00,
2013-07-25 01:11:00,69.0,66.9,29.84,North,11,2.0,10.0,93,0.00,BKN,BKN,0.00,0.0,WeatherDisplay:10.37,2013-07-25 05:11:00,
2013-07-25 01:16:00,69.1,67.0,29.85,NNE,15,2.0,9.0,93,0.00,BKN,BKN,0.00,0.0,WeatherDisplay:10.37,2013-07-25 05:16:00,
2013-07-25 01:21:00,69.2,66.8,29.85,NNE,21,2.0,13.0,92,0.00,BKN,BKN,0.00,0.0,WeatherDisplay:10.37,2013-07-25 05:21:00,
2013-07-25 01:26:00,69.2,66.5,29.85,NNE,24,3.0,10.0,91,0.00,BKN,BKN,0.00,0.0,WeatherDisplay:10.37,2013-07-25 05:26:00,
2013-07-25 01:31:00,69.4,66.3,29.85,NNE,15,5.0,8.0,90,0.00,BKN,BKN,0.00,0.0,WeatherDisplay:10.37,2013-07-25 05:31:00,
2013-07-25 01:36:00,69.4,66.0,29.85,North,11,5.0,10.0,89,0.00,BKN,BKN,0.00,0.0,WeatherDisplay:10.37,2013-07-25 05:36:00,
2013-07-25 01:41:00,69.4,66.0,29.85,NNE,15,3.0,7.0,89,0.00,BKN,BKN,0.00,0.0,WeatherDisplay:10.37,2013-07-25 05:41:00,
2013-07-25 01:46:00,69.4,65.7,29.85,NNE,18,3.0,12.0,88,0.00,BKN,BKN,0.00,0.0,WeatherDisplay:10.37,2013-07-25 05:46:00,
2013-07-25 01:51:00,69.4,65.7,29.85,NNE,23,3.0,7.0,88,0.00,BKN,BKN,0.00,0.0,WeatherDisplay:10.37,2013-07-25 05:51:00,
2013-07-25 01:56:00,69.2,65.5,29.85,NNE,18,3.0,7.0,88,0.00,BKN,BKN,0.00,0.0,WeatherDisplay:10.37,2013-07-25 05:56:00,
2013-07-25 02:01:00,69.1,65.4,29.85,NNE,25,3.0,12.0,88,0.00,BKN,BKN,0.00,0.0,WeatherDisplay:10.37,2013-07-25 06:01:00,
2013-07-25 02:06:00,68.9,65.2,29.85,NE,37,2.0,8.0,88,0.00,OVC,OVC,0.00,0.0,WeatherDisplay:10.37,2013-07-25 06:06:00,
2013-07-25 02:11:00,68.7,65.0,29.85,NNE,27,3.0,8.0,88,0.00,OVC,OVC,0.00,0.0,WeatherDisplay:10.37,2013-07-25 06:11:00,
2013-07-25 02:16:00,68.6,64.9,29.86,NNE,20,3.0,12.0,88,0.00,OVC,OVC,0.00,0.0,WeatherDisplay:10.37,2013-07-25 06:16:00,
2013-07-25 02:21:00,68.5,64.8,29.86,NNE,25,3.0,12.0,88,0.00,OVC,OVC,0.00,0.0,WeatherDisplay:10.37,2013-07-25 06:21:00,
2013-07-25 02:26:00,68.4,64.7,29.86,NNE,22,3.0,6.0,88,0.00,OVC,OVC,0.00,0.0,WeatherDisplay:10.37,2013-07-25 06:26:00,
2013-07-25 02:31:00,68.3,64.6,29.87,NNE,13,2.0,12.0,88,0.00,OVC,OVC,0.00,0.0,WeatherDisplay:10.37,2013-07-25 06:31:00,
2013-07-25 02:36:00,68.1,64.1,29.87,North,10,6.0,9.0,87,0.00,OVC,OVC,0.00,0.0,WeatherDisplay:10.37,2013-07-25 06:36:00,
2013-07-25 02:41:00,68.1,64.1,29.87,NNE,20,6.0,12.0,87,0.00,OVC,OVC,0.00,0.0,WeatherDisplay:10.37,2013-07-25 06:41:00,
2013-07-25 02:46:00,68.0,63.7,29.87,NNE,20,3.0,7.0,86,0.00,OVC,OVC,0.00,0.0,WeatherDisplay:10.37,2013-07-25 06:46:00,
2013-07-25 02:51:00,67.9,63.6,29.87,NNE,29,3.0,10.0,86,0.00,OVC,OVC,0.00,0.0,WeatherDisplay:10.37,2013-07-25 06:51:00,
2013-07-25 02:56:00,67.8,63.5,29.87,NNE,31,5.0,13.0,86,0.00,OVC,OVC,0.00,0.0,WeatherDisplay:10.37,2013-07-25 06:56:00,
2013-07-25 03:01:00,67.7,63.3,29.87,NE,38,5.0,12.0,86,0.00,OVC,OVC,0.00,0.0,WeatherDisplay:10.37,2013-07-25 07:01:00,
2013-07-25 03:06:00,67.5,62.8,29.87,NE,42,3.0,8.0,85,0.00,FEW,FEW,0.00,0.0,WeatherDisplay:10.37,2013-07-25 07:06:00,
2013-07-25 03:11:00,67.4,62.7,29.87,NE,42,3.0,6.0,85,0.00,FEW,FEW,0.00,0.0,WeatherDisplay:10.37,2013-07-25 07:11:00,
2013-07-25 03:16:00,67.2,62.5,29.87,NNE,30,3.0,7.0,85,0.00,FEW,FEW,0.00,0.0,WeatherDisplay:10.37,2013-07-25 07:16:00,
2013-07-25 03:21:00,67.1,62.1,29.87,NNE,33,5.0,12.0,84,0.00,FEW,FEW,0.00,0.0,WeatherDisplay:10.37,2013-07-25 07:21:00,
2013-07-25 03:26:00,67.0,62.0,29.87,NNE,30,3.0,10.0,84,0.00,FEW,FEW,0.00,0.0,WeatherDisplay:10.37,2013-07-25 07:26:00,
2013-07-25 03:31:00,66.9,61.6,29.88,NNE,18,3.0,12.0,83,0.00,FEW,FEW,0.00,0.0,WeatherDisplay:10.37,2013-07-25 07:31:00,
2013-07-25 03:36:00,66.8,61.8,29.88,NNE,20,3.0,9.0,84,0.00,FEW,FEW,0.00,0.0,WeatherDisplay:10.37,2013-07-25 07:36:00,
2013-07-25 03:41:00,66.7,61.7,29.88,NNE,21,5.0,10.0,84,0.00,FEW,FEW,0.00,0.0,WeatherDisplay:10.37,2013-07-25 07:41:00,
2013-07-25 03:46:00,66.7,61.7,29.88,North,0,5.0,12.0,84,0.00,FEW,FEW,0.00,0.0,WeatherDisplay:10.37,2013-07-25 07:46:00,
2013-07-25 03:51:00,66.6,61.6,29.88,NNE,13,3.0,12.0,84,0.00,FEW,FEW,0.00,0.0,WeatherDisplay:10.37,2013-07-25 07:51:00,
2013-07-25 04:01:00,66.5,61.2,29.88,NNE,28,5.0,12.0,83,0.00,FEW,FEW,0.00,0.0,WeatherDisplay:10.37,2013-07-25 08:01:00,
2013-07-25 04:06:00,66.5,60.8,29.88,NNE,25,7.0,12.0,82,0.00,BKN,BKN,0.00,0.0,WeatherDisplay:10.37,2013-07-25 08:06:00,
2013-07-25 04:11:00,66.5,60.8,29.88,NE,46,5.0,9.0,82,0.00,BKN,BKN,0.00,0.0,WeatherDisplay:10.37,2013-07-25 08:11:00,
2013-07-25 04:16:00,66.4,60.8,29.88,NE,41,2.0,13.0,82,0.00,BKN,BKN,0.00,0.0,WeatherDisplay:10.37,2013-07-25 08:16:00,
2013-07-25 04:21:00,66.4,60.7,29.88,NE,42,5.0,17.0,82,0.00,BKN,BKN,0.00,0.0,WeatherDisplay:10.37,2013-07-25 08:21:00,
2013-07-25 04:26:00,66.3,60.7,29.88,NE,42,2.0,12.0,82,0.00,BKN,BKN,0.00,0.0,WeatherDisplay:10.37,2013-07-25 08:26:00,
2013-07-25 04:31:00,66.3,60.6,29.89,NE,35,3.0,14.0,82,0.00,BKN,BKN,0.00,0.0,WeatherDisplay:10.37,2013-07-25 08:31:00,
2013-07-25 04:36:00,66.2,60.5,29.89,NNE,32,3.0,17.0,82,0.00,BKN,BKN,0.00,0.0,WeatherDisplay:10.37,2013-07-25 08:36:00,
2013-07-25 04:41:00,66.2,60.5,29.89,NE,43,3.0,14.0,82,0.00,BKN,BKN,0.00,0.0,WeatherDisplay:10.37,2013-07-25 08:41:00,
2013-07-25 04:46:00,66.1,60.5,29.90,NE,50,2.0,6.0,82,0.00,BKN,BKN,0.00,0.0,WeatherDisplay:10.37,2013-07-25 08:46:00,
2013-07-25 04:51:00,66.1,60.4,29.90,NNE,28,1.0,9.0,82,0.00,BKN,BKN,0.00,0.0,WeatherDisplay:10.37,2013-07-25 08:51:00,
2013-07-25 04:56:00,66.1,60.1,29.90,NNE,19,5.0,9.0,81,0.00,BKN,BKN,0.00,0.0,WeatherDisplay:10.37,2013-07-25 08:56:00,
2013-07-25 05:01:00,66.1,60.1,29.90,NE,36,3.0,9.0,81,0.00,BKN,BKN,0.00,0.0,WeatherDisplay:10.37,2013-07-25 09:01:00,
2013-07-25 05:06:00,66.0,59.7,29.90,NNE,24,3.0,12.0,80,0.00,BKN,BKN,0.00,0.0,WeatherDisplay:10.37,2013-07-25 09:06:00,
2013-07-25 05:11:00,65.9,59.6,29.90,NNE,32,5.0,10.0,80,0.00,BKN,BKN,0.00,0.0,WeatherDisplay:10.37,2013-07-25 09:11:00,
2013-07-25 05:16:00,65.8,59.5,29.91,NE,38,3.0,10.0,80,0.00,BKN,BKN,0.00,0.0,WeatherDisplay:10.37,2013-07-25 09:16:00,
2013-07-25 05:21:00,65.8,59.5,29.91,NE,43,5.0,12.0,80,0.00,BKN,BKN,0.00,0.0,WeatherDisplay:10.37,2013-07-25 09:21:00,
2013-07-25 05:26:00,65.7,59.4,29.91,NE,54,5.0,10.0,80,0.00,BKN,BKN,0.00,0.0,WeatherDisplay:10.37,2013-07-25 09:26:00,
2013-07-25 05:31:00,65.7,59.4,29.91,ENE,57,5.0,12.0,80,0.00,BKN,BKN,0.00,0.0,WeatherDisplay:10.37,2013-07-25 09:31:00,
2013-07-25 05:36:00,65.6,59.3,29.91,NE,39,3.0,15.0,80,0.00,BKN,BKN,0.00,0.0,WeatherDisplay:10.37,2013-07-25 09:36:00,
2013-07-25 05:41:00,65.6,59.6,29.91,NE,38,5.0,13.0,81,0.00,BKN,BKN,0.00,7.0,WeatherDisplay:10.37,2013-07-25 09:41:00,
2013-07-25 05:46:00,65.5,59.5,29.91,NE,39,3.0,12.0,81,0.00,BKN,BKN,0.00,7.0,WeatherDisplay:10.37,2013-07-25 09:46:00,
2013-07-25 05:51:00,65.5,59.5,29.91,NE,54,5.0,10.0,81,0.00,BKN,BKN,0.00,12.0,WeatherDisplay:10.37,2013-07-25 09:51:00,
2013-07-25 05:56:00,65.4,59.4,29.91,NE,38,3.0,10.0,81,0.00,BKN,BKN,0.00,19.0,WeatherDisplay:10.37,2013-07-25 09:56:00,
2013-07-25 06:01:00,65.4,59.4,29.91,NE,43,3.0,12.0,81,0.00,BKN,BKN,0.00,26.0,WeatherDisplay:10.37,2013-07-25 10:01:00,
2013-07-25 06:06:00,65.4,59.1,29.91,NE,41,3.0,12.0,80,0.00,OVC,OVC,0.00,28.0,WeatherDisplay:10.37,2013-07-25 10:06:00,
2013-07-25 06:11:00,65.4,59.1,29.91,NNE,33,3.0,7.0,80,0.00,OVC,OVC,0.00,25.0,WeatherDisplay:10.37,2013-07-25 10:11:00,
2013-07-25 06:16:00,65.4,59.4,29.92,NE,41,2.0,6.0,81,0.00,OVC,OVC,0.00,37.0,WeatherDisplay:10.37,2013-07-25 10:16:00,
2013-07-25 06:21:00,65.4,59.4,29.92,NNE,33,2.0,9.0,81,0.00,OVC,OVC,0.00,42.0,WeatherDisplay:10.37,2013-07-25 10:21:00,
2013-07-25 06:26:00,65.4,59.4,29.92,NE,40,5.0,10.0,81,0.00,OVC,OVC,0.00,42.0,WeatherDisplay:10.37,2013-07-25 10:26:00,
2013-07-25 06:31:00,65.4,59.4,29.91,NE,42,5.0,9.0,81,0.00,OVC,OVC,0.00,65.0,WeatherDisplay:10.37,2013-07-25 10:31:00,
2013-07-25 06:36:00,65.5,59.5,29.91,NE,49,5.0,12.0,81,0.00,OVC,OVC,0.00,76.0,WeatherDisplay:10.37,2013-07-25 10:36:00,
2013-07-25 06:41:00,65.5,59.1,29.91,NE,55,5.0,12.0,80,0.00,OVC,OVC,0.00,54.0,WeatherDisplay:10.37,2013-07-25 10:41:00,
2013-07-25 06:46:00,65.5,59.5,29.92,NE,44,3.0,12.0,81,0.00,OVC,OVC,0.00,46.0,WeatherDisplay:10.37,2013-07-25 10:46:00,
2013-07-25 06:51:00,65.5,59.5,29.92,NE,45,3.0,13.0,81,0.00,OVC,OVC,0.00,39.0,WeatherDisplay:10.37,2013-07-25 10:51:00,
2013-07-25 06:56:00,65.4,59.4,29.92,NE,51,5.0,9.0,81,0.00,OVC,OVC,0.00,44.0,WeatherDisplay:10.37,2013-07-25 10:56:00,
2013-07-25 07:01:00,65.3,59.3,29.93,NE,52,3.0,9.0,81,0.00,OVC,OVC,0.00,65.0,WeatherDisplay:10.37,2013-07-25 11:01:00,
2013-07-25 07:06:00,65.3,59.3,29.93,NE,46,2.0,7.0,81,0.00,OVC,OVC,0.00,69.0,WeatherDisplay:10.37,2013-07-25 11:06:00,
2013-07-25 07:11:00,65.4,59.4,29.93,NE,47,5.0,9.0,81,0.00,OVC,OVC,0.00,69.0,WeatherDisplay:10.37,2013-07-25 11:11:00,
2013-07-25 07:16:00,65.4,59.4,29.93,NE,48,3.0,12.0,81,0.00,OVC,OVC,0.00,107.0,WeatherDisplay:10.37,2013-07-25 11:16:00,
2013-07-25 07:21:00,65.5,59.5,29.93,NE,50,3.0,9.0,81,0.00,OVC,OVC,0.00,123.0,WeatherDisplay:10.37,2013-07-25 11:21:00,
2013-07-25 07:26:00,65.7,59.7,29.93,NE,39,1.0,9.0,81,0.00,OVC,OVC,0.00,83.0,WeatherDisplay:10.37,2013-07-25 11:26:00,
2013-07-25 07:31:00,65.8,59.8,29.94,NE,43,2.0,7.0,81,0.00,OVC,OVC,0.00,91.0,WeatherDisplay:10.37,2013-07-25 11:31:00,
2013-07-25 07:36:00,65.8,60.2,29.94,NE,49,1.0,7.0,82,0.00,OVC,OVC,0.00,107.0,WeatherDisplay:10.37,2013-07-25 11:36:00,
2013-07-25 07:41:00,65.9,60.2,29.94,NE,51,2.0,9.0,82,0.00,OVC,OVC,0.00,153.0,WeatherDisplay:10.37,2013-07-25 11:41:00,
2013-07-25 07:46:00,66.1,60.1,29.94,NE,34,3.0,7.0,81,0.00,OVC,OVC,0.00,95.0,WeatherDisplay:10.37,2013-07-25 11:46:00,
2013-07-25 07:51:00,66.1,60.4,29.94,NE,53,2.0,9.0,82,0.00,OVC,OVC,0.00,105.0,WeatherDisplay:10.37,2013-07-25 11:51:00,
2013-07-25 07:56:00,66.2,60.2,29.94,ENE,57,2.0,7.0,81,0.00,OVC,OVC,0.00,148.0,WeatherDisplay:10.37,2013-07-25 11:56:00,
2013-07-25 08:01:00,66.3,60.2,29.94,NE,50,3.0,12.0,81,0.00,OVC,OVC,0.00,239.0,WeatherDisplay:10.37,2013-07-25 12:01:00,
2013-07-25 08:11:00,66.7,60.3,29.94,NE,40,3.0,14.0,80,0.00,OVC,OVC,0.00,216.0,WeatherDisplay:10.37,2013-07-25 12:11:00,
2013-07-25 08:16:00,66.8,60.5,29.95,NE,43,1.0,9.0,80,0.00,OVC,OVC,0.00,153.0,WeatherDisplay:10.37,2013-07-25 12:16:00,
2013-07-25 08:21:00,67.0,61.0,29.95,NE,41,2.0,10.0,81,0.00,OVC,OVC,0.00,63.0,WeatherDisplay:10.37,2013-07-25 12:21:00,
2013-07-25 08:26:00,66.9,60.9,29.95,NE,38,2.0,6.0,81,0.00,OVC,OVC,0.00,56.0,WeatherDisplay:10.37,2013-07-25 12:26:00,
2013-07-25 08:31:00,66.7,60.7,29.96,NE,43,3.0,10.0,81,0.00,OVC,OVC,0.00,79.0,WeatherDisplay:10.37,2013-07-25 12:31:00,
2013-07-25 08:36:00,66.4,60.7,29.96,ENE,60,2.0,10.0,82,0.00,OVC,OVC,0.00,135.0,WeatherDisplay:10.37,2013-07-25 12:36:00,
2013-07-25 08:41:00,66.4,60.7,29.96,NE,48,2.0,8.0,82,0.00,OVC,OVC,0.00,151.0,WeatherDisplay:10.37,2013-07-25 12:41:00,
2013-07-25 08:46:00,66.5,60.8,29.96,NE,38,2.0,7.0,82,0.00,OVC,OVC,0.00,167.0,WeatherDisplay:10.37,2013-07-25 12:46:00,
2013-07-25 08:51:00,66.7,61.0,29.96,NE,46,3.0,12.0,82,0.00,OVC,OVC,0.00,156.0,WeatherDisplay:10.37,2013-07-25 12:51:00,
2013-07-25 08:56:00,66.8,61.1,29.96,NE,42,3.0,7.0,82,0.00,OVC,OVC,0.00,193.0,WeatherDisplay:10.37,2013-07-25 12:56:00,
2013-07-25 09:01:00,66.9,61.2,29.96,NE,41,5.0,9.0,82,0.00,OVC,OVC,0.00,188.0,WeatherDisplay:10.37,2013-07-25 13:01:00,
2013-07-25 09:06:00,67.1,61.5,29.96,NE,42,5.0,12.0,82,0.00,OVC,OVC,0.00,149.0,WeatherDisplay:10.37,2013-07-25 13:06:00,
2013-07-25 09:11:00,67.1,61.4,29.96,NE,46,3.0,12.0,82,0.00,OVC,OVC,0.00,144.0,WeatherDisplay:10.37,2013-07-25 13:11:00,
2013-07-25 09:16:00,67.1,61.4,29.97,ENE,61,2.0,9.0,82,0.00,OVC,OVC,0.00,162.0,WeatherDisplay:10.37,2013-07-25 13:16:00,
2013-07-25 09:21:00,67.1,61.1,29.97,NE,47,2.0,12.0,81,0.00,OVC,OVC,0.00,146.0,WeatherDisplay:10.37,2013-07-25 13:21:00,
2013-07-25 09:26:00,67.2,61.5,29.97,NE,55,3.0,7.0,82,0.00,OVC,OVC,0.00,216.0,WeatherDisplay:10.37,2013-07-25 13:26:00,
2013-07-25 09:31:00,67.3,61.6,29.98,NE,40,2.0,6.0,82,0.00,OVC,OVC,0.00,186.0,WeatherDisplay:10.37,2013-07-25 13:31:00,
2013-07-25 09:36:00,67.5,61.5,29.98,NNE,29,5.0,12.0,81,0.00,OVC,OVC,0.00,141.0,WeatherDisplay:10.37,2013-07-25 13:36:00,
2013-07-25 09:41:00,67.5,61.5,29.98,ENE,60,3.0,12.0,81,0.00,OVC,OVC,0.00,137.0,WeatherDisplay:10.37,2013-07-25 13:41:00,
2013-07-25 09:46:00,67.4,61.4,29.97,ENE,64,2.0,9.0,81,0.00,OVC,OVC,0.00,135.0,WeatherDisplay:10.37,2013-07-25 13:46:00,
2013-07-25 09:51:00,67.3,61.3,29.97,NE,55,2.0,9.0,81,0.00,OVC,OVC,0.00,105.0,WeatherDisplay:10.37,2013-07-25 13:51:00,
2013-07-25 09:56:00,67.2,61.1,29.97,NE,54,2.0,6.0,81,0.00,OVC,OVC,0.00,93.0,WeatherDisplay:10.37,2013-07-25 13:56:00,
2013-07-25 10:01:00,67.0,61.3,29.99,ENE,61,1.0,7.0,82,0.00,OVC,OVC,0.00,105.0,WeatherDisplay:10.37,2013-07-25 14:01:00,
2013-07-25 10:06:00,66.9,61.2,29.99,ENE,67,3.0,9.0,82,0.00,OVC,OVC,0.00,132.0,WeatherDisplay:10.37,2013-07-25 14:06:00,
2013-07-25 10:11:00,66.8,61.1,29.99,ENE,63,3.0,12.0,82,0.00,OVC,OVC,0.00,174.0,WeatherDisplay:10.37,2013-07-25 14:11:00,
2013-07-25 10:16:00,66.9,61.6,29.99,NE,55,3.0,12.0,83,0.00,OVC,OVC,0.00,176.0,WeatherDisplay:10.37,2013-07-25 14:16:00,
2013-07-25 10:21:00,67.1,61.8,29.99,NE,35,1.0,5.0,83,0.00,OVC,OVC,0.00,176.0,WeatherDisplay:10.37,2013-07-25 14:21:00,
2013-07-25 10:26:00,67.2,61.5,29.99,NE,52,2.0,10.0,82,0.00,OVC,OVC,0.00,146.0,WeatherDisplay:10.37,2013-07-25 14:26:00,
2013-07-25 10:31:00,67.0,61.3,29.98,ENE,68,5.0,12.0,82,0.00,OVC,OVC,0.00,220.0,WeatherDisplay:10.37,2013-07-25 14:31:00,
2013-07-25 10:36:00,67.0,61.7,29.98,NE,56,1.0,12.0,83,0.00,OVC,OVC,0.00,144.0,WeatherDisplay:10.37,2013-07-25 14:36:00,
2013-07-25 10:41:00,67.1,61.8,29.98,NE,40,5.0,10.0,83,0.00,OVC,OVC,0.00,114.0,WeatherDisplay:10.37,2013-07-25 14:41:00,
2013-07-25 10:46:00,67.1,61.8,29.99,NE,53,2.0,10.0,83,0.00,OVC,OVC,0.00,139.0,WeatherDisplay:10.37,2013-07-25 14:46:00,
2013-07-25 10:51:00,67.0,61.7,29.99,ENE,70,3.0,16.0,83,0.00,OVC,OVC,0.00,139.0,WeatherDisplay:10.37,2013-07-25 14:51:00,
2013-07-25 10:56:00,66.8,61.5,29.99,ENE,70,2.0,8.0,83,0.00,OVC,OVC,0.00,134.0,WeatherDisplay:10.37,2013-07-25 14:56:00,
2013-07-25 11:01:00,66.8,61.8,29.99,NE,45,5.0,12.0,84,0.00,OVC,OVC,0.00,118.0,WeatherDisplay:10.37,2013-07-25 15:01:00,
2013-07-25 11:06:00,66.6,61.3,29.99,NE,41,2.0,7.0,83,0.00,OVC,OVC,0.00,102.0,WeatherDisplay:10.37,2013-07-25 15:06:00,
2013-07-25 11:11:00,66.6,61.6,29.99,NE,46,2.0,6.0,84,0.00,OVC,OVC,0.00,128.0,WeatherDisplay:10.37,2013-07-25 15:11:00,
2013-07-25 11:16:00,66.7,62.0,29.99,ENE,63,2.0,9.0,85,0.00,OVC,OVC,0.00,111.0,WeatherDisplay:10.37,2013-07-25 15:16:00,
2013-07-25 11:21:00,66.6,61.6,29.99,NE,43,5.0,10.0,84,0.00,OVC,OVC,0.00,130.0,WeatherDisplay:10.37,2013-07-25 15:21:00,
2013-07-25 11:26:00,66.6,61.9,29.99,NE,54,1.0,7.0,85,0.00,OVC,OVC,0.00,128.0,WeatherDisplay:10.37,2013-07-25 15:26:00,
2013-07-25 11:31:00,66.6,61.6,29.98,ENE,64,3.0,13.0,84,0.00,OVC,OVC,0.00,146.0,WeatherDisplay:10.37,2013-07-25 15:31:00,
2013-07-25 11:36:00,66.6,61.6,29.98,ENE,63,2.0,9.0,84,0.00,OVC,OVC,0.00,118.0,WeatherDisplay:10.37,2013-07-25 15:36:00,
2013-07-25 11:41:00,66.6,61.6,29.98,East,80,3.0,6.0,84,0.00,OVC,OVC,0.00,179.0,WeatherDisplay:10.37,2013-07-25 15:41:00,
2013-07-25 11:46:00,66.7,62.0,29.98,NE,47,2.0,7.0,85,0.00,OVC,OVC,0.00,178.0,WeatherDisplay:10.37,2013-07-25 15:46:00,
2013-07-25 11:51:00,66.9,62.2,29.98,NE,46,5.0,12.0,85,0.00,OVC,OVC,0.00,265.0,WeatherDisplay:10.37,2013-07-25 15:51:00,
2013-07-25 11:56:00,67.0,62.0,29.98,ENE,61,3.0,10.0,84,0.00,OVC,OVC,0.00,211.0,WeatherDisplay:10.37,2013-07-25 15:56:00,
2013-07-25 12:01:00,67.2,62.2,29.98,NE,52,2.0,14.0,84,0.00,OVC,OVC,0.00,179.0,WeatherDisplay:10.37,2013-07-25 16:01:00,
2013-07-25 12:11:00,67.2,62.2,29.98,NE,39,2.0,12.0,84,0.00,OVC,OVC,0.00,188.0,WeatherDisplay:10.37,2013-07-25 16:11:00,
2013-07-25 12:16:00,67.2,62.2,29.98,NNE,30,3.0,7.0,84,0.00,OVC,OVC,0.00,192.0,WeatherDisplay:10.37,2013-07-25 16:16:00,
2013-07-25 12:21:00,67.2,62.2,29.98,NE,46,3.0,10.0,84,0.00,OVC,OVC,0.00,167.0,WeatherDisplay:10.37,2013-07-25 16:21:00,
2013-07-25 12:26:00,67.2,62.2,29.98,NE,47,5.0,12.0,84,0.00,OVC,OVC,0.00,148.0,WeatherDisplay:10.37,2013-07-25 16:26:00,
2013-07-25 12:31:00,67.1,62.1,29.99,NNE,33,3.0,7.0,84,0.00,OVC,OVC,0.00,155.0,WeatherDisplay:10.37,2013-07-25 16:31:00,
2013-07-25 12:40:00,67.0,62.3,29.99,NE,45,3.0,9.0,85,0.00,OVC,OVC,0.00,163.0,WeatherDisplay:10.37,2013-07-25 16:40:00,
2013-07-25 12:45:00,67.0,62.3,29.99,NE,54,2.0,10.0,85,0.00,OVC,OVC,0.00,181.0,WeatherDisplay:10.37,2013-07-25 16:45:00,
2013-07-25 12:50:00,67.1,62.4,29.99,NE,54,3.0,9.0,85,0.00,OVC,OVC,0.00,181.0,WeatherDisplay:10.37,2013-07-25 16:50:00,
2013-07-25 12:55:00,67.1,62.1,29.99,ENE,58,1.0,3.0,84,0.00,OVC,OVC,0.00,156.0,WeatherDisplay:10.37,2013-07-25 16:55:00,
2013-07-25 13:00:00,67.2,62.2,29.99,NE,40,2.0,10.0,84,0.00,OVC,OVC,0.00,146.0,WeatherDisplay:10.37,2013-07-25 17:00:00,
2013-07-25 13:05:00,67.2,62.5,29.99,NE,39,3.0,6.0,85,0.00,OVC,OVC,0.00,162.0,WeatherDisplay:10.37,2013-07-25 17:05:00,
2013-07-25 13:10:00,67.3,62.3,29.99,ENE,57,5.0,12.0,84,0.00,OVC,OVC,0.00,158.0,WeatherDisplay:10.37,2013-07-25 17:10:00,
2013-07-25 13:15:00,67.2,62.2,29.99,NE,54,2.0,12.0,84,0.00,OVC,OVC,0.00,146.0,WeatherDisplay:10.37,2013-07-25 17:15:00,
2013-07-25 13:20:00,67.2,62.2,29.99,NE,43,3.0,10.0,84,0.00,OVC,OVC,0.00,149.0,WeatherDisplay:10.37,2013-07-25 17:20:00,
2013-07-25 13:25:00,67.3,62.6,29.99,NE,41,3.0,6.0,85,0.00,OVC,OVC,0.00,160.0,WeatherDisplay:10.37,2013-07-25 17:25:00,
2013-07-25 13:30:00,67.4,62.4,29.99,NNE,27,3.0,10.0,84,0.00,OVC,OVC,0.00,169.0,WeatherDisplay:10.37,2013-07-25 17:30:00,
2013-07-25 13:35:00,67.4,62.4,29.99,NE,55,1.0,9.0,84,0.00,OVC,OVC,0.00,178.0,WeatherDisplay:10.37,2013-07-25 17:35:00,
2013-07-25 13:40:00,67.3,62.3,29.99,ENE,60,3.0,9.0,84,0.00,OVC,OVC,0.00,146.0,WeatherDisplay:10.37,2013-07-25 17:40:00,
2013-07-25 13:45:00,67.2,62.2,29.99,NE,53,2.0,9.0,84,0.00,OVC,OVC,0.00,141.0,WeatherDisplay:10.37,2013-07-25 17:45:00,
2013-07-25 13:50:00,67.3,62.7,29.99,NE,52,2.0,12.0,85,0.00,OVC,OVC,0.00,188.0,WeatherDisplay:10.37,2013-07-25 17:50:00,
2013-07-25 13:55:00,67.4,62.8,29.99,NE,51,3.0,9.0,85,0.00,OVC,OVC,0.00,199.0,WeatherDisplay:10.37,2013-07-25 17:55:00,
2013-07-25 14:00:00,67.5,62.5,29.98,NE,42,3.0,10.0,84,0.00,OVC,OVC,0.00,174.0,WeatherDisplay:10.37,2013-07-25 18:00:00,
2013-07-25 14:05:00,67.5,62.5,29.98,NE,39,2.0,10.0,84,0.00,OVC,OVC,0.00,162.0,WeatherDisplay:10.37,2013-07-25 18:05:00,
2013-07-25 14:10:00,67.5,62.5,29.98,NE,38,1.0,8.0,84,0.00,OVC,OVC,0.00,137.0,WeatherDisplay:10.37,2013-07-25 18:10:00,
2013-07-25 14:15:00,67.5,62.5,29.98,NE,35,3.0,9.0,84,0.00,OVC,OVC,0.00,137.0,WeatherDisplay:10.37,2013-07-25 18:15:00,
2013-07-25 14:20:00,67.4,62.4,29.98,NNE,32,1.0,6.0,84,0.00,OVC,OVC,0.00,139.0,WeatherDisplay:10.37,2013-07-25 18:20:00,
2013-07-25 14:25:00,67.4,62.4,29.98,NNE,33,1.0,10.0,84,0.00,OVC,OVC,0.00,113.0,WeatherDisplay:10.37,2013-07-25 18:25:00,
2013-07-25 14:30:00,67.4,62.4,29.98,NE,49,5.0,9.0,84,0.00,OVC,OVC,0.00,114.0,WeatherDisplay:10.37,2013-07-25 18:30:00,
2013-07-25 14:35:00,67.1,62.1,29.98,NE,56,5.0,12.0,84,0.00,OVC,OVC,0.00,135.0,WeatherDisplay:10.37,2013-07-25 18:35:00,
2013-07-25 14:40:00,67.0,62.3,29.98,ENE,58,6.0,12.0,85,0.00,OVC,OVC,0.00,155.0,WeatherDisplay:10.37,2013-07-25 18:40:00,
2013-07-25 14:45:00,66.9,62.6,29.97,ENE,57,3.0,10.0,86,0.00,OVC,OVC,0.00,165.0,WeatherDisplay:10.37,2013-07-25 18:45:00,
2013-07-25 14:50:00,66.9,62.6,29.97,NE,55,2.0,7.0,86,0.00,OVC,OVC,0.00,149.0,WeatherDisplay:10.37,2013-07-25 18:50:00,
2013-07-25 14:55:00,66.9,62.2,29.97,ENE,62,6.0,12.0,85,0.00,OVC,OVC,0.00,132.0,WeatherDisplay:10.37,2013-07-25 18:55:00,
2013-07-25 15:00:00,66.9,62.2,29.97,ENE,58,3.0,9.0,85,0.00,OVC,OVC,0.00,132.0,WeatherDisplay:10.37,2013-07-25 19:00:00,
2013-07-25 15:10:00,67.0,62.7,29.97,ENE,65,2.0,9.0,86,0.00,OVC,OVC,0.00,149.0,WeatherDisplay:10.37,2013-07-25 19:10:00,
2013-07-25 15:15:00,67.1,62.4,29.97,ENE,68,2.0,10.0,85,0.00,OVC,OVC,0.00,123.0,WeatherDisplay:10.37,2013-07-25 19:15:00,
2013-07-25 15:20:00,67.2,62.6,29.97,East,86,2.0,6.0,85,0.00,OVC,OVC,0.00,125.0,WeatherDisplay:10.37,2013-07-25 19:20:00,
2013-07-25 15:30:00,67.2,62.5,29.97,ENE,57,1.0,7.0,85,0.00,OVC,OVC,0.00,111.0,WeatherDisplay:10.37,2013-07-25 19:30:00,
2013-07-25 15:35:00,67.0,62.3,29.97,NE,54,3.0,10.0,85,0.00,OVC,OVC,0.00,123.0,WeatherDisplay:10.37,2013-07-25 19:35:00,
2013-07-25 15:45:00,66.7,62.0,29.97,NE,49,3.0,10.0,85,0.00,OVC,OVC,0.00,127.0,WeatherDisplay:10.37,2013-07-25 19:45:00,
2013-07-25 15:50:00,66.8,62.1,29.97,NE,54,2.0,9.0,85,0.00,OVC,OVC,0.00,118.0,WeatherDisplay:10.37,2013-07-25 19:50:00,
2013-07-25 15:55:00,66.9,62.2,29.97,NE,37,2.0,12.0,85,0.00,OVC,OVC,0.00,120.0,WeatherDisplay:10.37,2013-07-25 19:55:00,
2013-07-25 16:00:00,67.0,62.6,29.97,NE,46,2.0,9.0,86,0.00,OVC,OVC,0.00,93.0,WeatherDisplay:10.37,2013-07-25 20:00:00,
2013-07-25 16:05:00,66.9,62.6,29.97,NE,56,2.0,10.0,86,0.00,OVC,OVC,0.00,86.0,WeatherDisplay:10.37,2013-07-25 20:05:00,
2013-07-25 16:10:00,66.9,62.6,29.97,NNE,31,1.0,6.0,86,0.00,OVC,OVC,0.00,69.0,WeatherDisplay:10.37,2013-07-25 20:10:00,
2013-07-25 16:15:00,66.8,62.5,29.97,NNE,21,0.0,6.0,86,0.00,OVC,OVC,0.00,60.0,WeatherDisplay:10.37,2013-07-25 20:15:00,
2013-07-25 16:20:00,66.6,61.9,29.97,NE,34,5.0,16.0,85,0.00,OVC,OVC,0.00,58.0,WeatherDisplay:10.37,2013-07-25 20:20:00,
2013-07-25 16:25:00,66.4,62.1,29.97,NE,46,2.0,9.0,86,0.00,OVC,OVC,0.00,72.0,WeatherDisplay:10.37,2013-07-25 20:25:00,
2013-07-25 16:30:00,66.3,62.0,29.97,NNE,32,2.0,9.0,86,0.00,OVC,OVC,0.00,77.0,WeatherDisplay:10.37,2013-07-25 20:30:00,
2013-07-25 16:35:00,66.2,62.2,29.97,NE,35,3.0,8.0,87,0.00,OVC,OVC,0.00,65.0,WeatherDisplay:10.37,2013-07-25 20:35:00,
2013-07-25 16:40:00,66.1,62.1,29.97,NE,39,3.0,12.0,87,0.00,OVC,OVC,0.00,58.0,WeatherDisplay:10.37,2013-07-25 20:40:00,
2013-07-25 16:45:00,66.0,62.0,29.98,NE,38,6.0,12.0,87,0.00,OVC,OVC,0.00,60.0,WeatherDisplay:10.37,2013-07-25 20:45:00,
2013-07-25 16:50:00,65.9,61.9,29.98,NE,46,3.0,10.0,87,0.00,OVC,OVC,0.00,62.0,WeatherDisplay:10.37,2013-07-25 20:50:00,
2013-07-25 16:55:00,65.8,62.1,29.98,NE,48,1.0,6.0,88,0.00,OVC,OVC,0.00,67.0,WeatherDisplay:10.37,2013-07-25 20:55:00,
2013-07-25 17:00:00,65.8,61.8,29.98,NNE,22,5.0,13.0,87,0.00,OVC,OVC,0.00,62.0,WeatherDisplay:10.37,2013-07-25 21:00:00,
2013-07-25 17:05:00,65.7,62.0,29.98,NE,35,3.0,9.0,88,0.00,OVC,OVC,0.00,58.0,WeatherDisplay:10.37,2013-07-25 21:05:00,
2013-07-25 17:10:00,65.6,61.9,29.98,NNE,29,3.0,12.0,88,0.00,OVC,OVC,0.00,58.0,WeatherDisplay:10.37,2013-07-25 21:10:00,
2013-07-25 17:15:00,65.5,61.9,29.98,NNE,29,3.0,10.0,88,0.00,OVC,OVC,0.00,51.0,WeatherDisplay:10.37,2013-07-25 21:15:00,
2013-07-25 17:20:00,65.4,62.1,29.98,NE,49,3.0,9.0,89,0.00,OVC,OVC,0.00,49.0,WeatherDisplay:10.37,2013-07-25 21:20:00,
2013-07-25 17:25:00,65.2,61.9,29.98,NE,51,2.0,9.0,89,0.00,OVC,OVC,0.00,53.0,WeatherDisplay:10.37,2013-07-25 21:25:00,
2013-07-25 17:30:00,65.1,61.8,29.98,NE,44,2.0,8.0,89,0.00,OVC,OVC,0.00,42.0,WeatherDisplay:10.37,2013-07-25 21:30:00,
2013-07-25 17:35:00,65.0,61.7,29.98,NE,37,2.0,7.0,89,0.00,OVC,OVC,0.00,42.0,WeatherDisplay:10.37,2013-07-25 21:35:00,
2013-07-25 17:40:00,64.9,61.6,29.98,NE,44,3.0,6.0,89,0.00,OVC,OVC,0.00,47.0,WeatherDisplay:10.37,2013-07-25 21:40:00,
2013-07-25 17:45:00,64.8,61.5,29.98,NE,48,3.0,12.0,89,0.00,OVC,OVC,0.00,46.0,WeatherDisplay:10.37,2013-07-25 21:45:00,
2013-07-25 17:50:00,64.8,61.5,29.98,NE,46,2.0,10.0,89,0.00,OVC,OVC,0.00,47.0,WeatherDisplay:10.37,2013-07-25 21:50:00,
2013-07-25 17:55:00,64.9,61.9,29.98,NE,39,3.0,9.0,90,0.00,OVC,OVC,0.00,51.0,WeatherDisplay:10.37,2013-07-25 21:55:00,
2013-07-25 18:00:00,64.9,61.9,29.98,NE,39,1.0,9.0,90,0.00,OVC,OVC,0.00,51.0,WeatherDisplay:10.37,2013-07-25 22:00:00,
2013-07-25 18:05:00,64.9,61.6,29.98,NE,39,2.0,10.0,89,0.00,OVC,OVC,0.00,46.0,WeatherDisplay:10.37,2013-07-25 22:05:00,
2013-07-25 18:10:00,64.9,61.6,29.98,NE,44,2.0,7.0,89,0.00,OVC,OVC,0.00,47.0,WeatherDisplay:10.37,2013-07-25 22:10:00,
2013-07-25 18:15:00,65.0,61.7,29.98,NE,49,0.0,5.0,89,0.00,OVC,OVC,0.00,32.0,WeatherDisplay:10.37,2013-07-25 22:15:00,
2013-07-25 18:20:00,65.1,61.8,29.98,NE,37,3.0,7.0,89,0.00,OVC,OVC,0.00,39.0,WeatherDisplay:10.37,2013-07-25 22:20:00,
2013-07-25 18:25:00,65.1,61.8,29.98,NNE,25,1.0,5.0,89,0.00,OVC,OVC,0.00,33.0,WeatherDisplay:10.37,2013-07-25 22:25:00,
2013-07-25 18:30:00,65.1,61.8,29.98,NNE,30,1.0,10.0,89,0.00,OVC,OVC,0.00,37.0,WeatherDisplay:10.37,2013-07-25 22:30:00,
2013-07-25 18:35:00,65.1,61.8,29.98,NNE,32,3.0,10.0,89,0.00,OVC,OVC,0.00,28.0,WeatherDisplay:10.37,2013-07-25 22:35:00,
2013-07-25 18:40:00,65.1,61.8,29.98,NNE,23,2.0,13.0,89,0.00,OVC,OVC,0.00,19.0,WeatherDisplay:10.37,2013-07-25 22:40:00,
2013-07-25 18:45:00,65.1,61.8,29.98,NNE,16,1.0,13.0,89,0.00,OVC,OVC,0.00,21.0,WeatherDisplay:10.37,2013-07-25 22:45:00,
2013-07-25 18:50:00,65.0,61.7,29.98,NNE,27,5.0,13.0,89,0.00,OVC,OVC,0.00,25.0,WeatherDisplay:10.37,2013-07-25 22:50:00,
2013-07-25 18:55:00,64.9,61.6,29.98,NNE,27,3.0,9.0,89,0.00,OVC,OVC,0.00,23.0,WeatherDisplay:10.37,2013-07-25 22:55:00,
2013-07-25 19:00:00,64.9,61.6,29.98,NNE,17,2.0,5.0,89,0.00,OVC,OVC,0.00,21.0,WeatherDisplay:10.37,2013-07-25 23:00:00,
2013-07-25 19:05:00,64.9,61.6,29.98,NNE,22,2.0,10.0,89,0.00,OVC,OVC,0.00,18.0,WeatherDisplay:10.37,2013-07-25 23:05:00,
2013-07-25 19:10:00,64.8,61.5,29.98,NNE,13,2.0,12.0,89,0.00,OVC,OVC,0.00,16.0,WeatherDisplay:10.37,2013-07-25 23:10:00,
2013-07-25 19:15:00,64.8,61.5,29.98,NNE,25,2.0,12.0,89,0.00,OVC,OVC,0.00,11.0,WeatherDisplay:10.37,2013-07-25 23:15:00,
2013-07-25 19:20:00,64.8,61.5,29.98,NE,41,1.0,10.0,89,0.00,OVC,OVC,0.00,9.0,WeatherDisplay:10.37,2013-07-25 23:20:00,
2013-07-25 19:25:00,64.9,61.6,29.98,NNE,23,3.0,12.0,89,0.00,OVC,OVC,0.00,7.0,WeatherDisplay:10.37,2013-07-25 23:25:00,
2013-07-25 19:30:00,64.9,61.6,29.98,NNE,16,5.0,9.0,89,0.00,OVC,OVC,0.00,5.0,WeatherDisplay:10.37,2013-07-25 23:30:00,
2013-07-25 19:35:00,64.9,61.6,29.98,NNE,24,3.0,12.0,89,0.00,OVC,OVC,0.00,0.0,WeatherDisplay:10.37,2013-07-25 23:35:00,
2013-07-25 19:40:00,64.8,61.5,29.98,NNE,19,6.0,12.0,89,0.00,OVC,OVC,0.00,0.0,WeatherDisplay:10.37,2013-07-25 23:40:00,
2013-07-25 19:45:00,64.7,61.4,29.98,NNE,21,3.0,12.0,89,0.00,OVC,OVC,0.00,0.0,WeatherDisplay:10.37,2013-07-25 23:45:00,
2013-07-25 19:50:00,64.7,61.7,29.98,North,5,3.0,12.0,90,0.00,OVC,OVC,0.00,0.0,WeatherDisplay:10.37,2013-07-25 23:50:00,
2013-07-25 19:55:00,64.7,61.7,29.98,North,9,3.0,12.0,90,0.00,OVC,OVC,0.00,0.0,WeatherDisplay:10.37,2013-07-25 23:55:00,
2013-07-25 20:00:00,64.7,61.7,29.98,NNE,28,3.0,9.0,90,0.00,OVC,OVC,0.00,0.0,WeatherDisplay:10.37,2013-07-26 00:00:00,
2013-07-25 20:05:00,64.6,61.6,29.98,NNE,28,3.0,10.0,90,0.00,OVC,OVC,0.00,0.0,WeatherDisplay:10.37,2013-07-26 00:05:00,
2013-07-25 20:10:00,64.6,61.6,29.98,NNE,26,3.0,7.0,90,0.00,OVC,OVC,0.00,0.0,WeatherDisplay:10.37,2013-07-26 00:10:00,
2013-07-25 20:15:00,64.6,61.6,29.98,NNE,27,3.0,12.0,90,0.00,OVC,OVC,0.00,0.0,WeatherDisplay:10.37,2013-07-26 00:15:00,
2013-07-25 20:20:00,64.6,61.6,29.98,NNE,25,2.0,6.0,90,0.00,OVC,OVC,0.00,0.0,WeatherDisplay:10.37,2013-07-26 00:20:00,
2013-07-25 20:25:00,64.6,61.6,29.98,NNE,26,2.0,13.0,90,0.00,OVC,OVC,0.00,0.0,WeatherDisplay:10.37,2013-07-26 00:25:00,
2013-07-25 20:30:00,64.6,61.6,29.98,NNE,30,5.0,7.0,90,0.00,OVC,OVC,0.00,0.0,WeatherDisplay:10.37,2013-07-26 00:30:00,
2013-07-25 20:35:00,64.6,61.9,29.98,NNE,17,1.0,10.0,91,0.00,OVC,OVC,0.00,0.0,WeatherDisplay:10.37,2013-07-26 00:35:00,
2013-07-25 20:45:00,64.5,61.8,29.98,NNE,21,1.0,6.0,91,0.00,OVC,OVC,0.00,0.0,WeatherDisplay:10.37,2013-07-26 00:45:00,
2013-07-25 20:50:00,64.5,62.1,29.98,NNE,23,3.0,6.0,92,0.00,OVC,OVC,0.00,0.0,WeatherDisplay:10.37,2013-07-26 00:50:00,
2013-07-25 20:55:00,64.4,62.0,29.98,NNE,29,2.0,9.0,92,0.00,OVC,OVC,0.00,0.0,WeatherDisplay:10.37,2013-07-26 00:55:00,
2013-07-25 21:00:00,64.3,62.0,29.98,NE,36,1.0,5.0,92,0.00,RA,RA,0.01,0.0,WeatherDisplay:10.37,2013-07-26 01:00:00,
2013-07-25 21:05:00,64.4,62.3,29.98,NE,39,1.0,7.0,93,0.02,RA,RA,0.02,0.0,WeatherDisplay:10.37,2013-07-26 01:05:00,
2013-07-25 21:10:00,64.2,62.1,29.98,NNE,33,2.0,7.0,93,0.01,RA,RA,0.02,0.0,WeatherDisplay:10.37,2013-07-26 01:10:00,
2013-07-25 21:15:00,64.1,62.0,29.98,NNE,28,3.0,9.0,93,0.00,OVC,OVC,0.02,0.0,WeatherDisplay:10.37,2013-07-26 01:15:00,
2013-07-25 21:25:00,64.1,62.3,29.98,NNE,27,2.0,6.0,94,0.01,RA,RA,0.03,0.0,WeatherDisplay:10.37,2013-07-26 01:25:00,
2013-07-25 21:30:00,64.1,62.3,29.98,NNE,26,1.0,7.0,94,0.00,OVC,OVC,0.03,0.0,WeatherDisplay:10.37,2013-07-26 01:30:00,
2013-07-25 21:35:00,64.1,62.3,29.98,NNE,29,1.0,5.0,94,0.00,OVC,OVC,0.03,0.0,WeatherDisplay:10.37,2013-07-26 01:35:00,
2013-07-25 21:40:00,64.0,62.6,29.98,NE,36,1.0,6.0,95,0.01,RA,RA,0.04,0.0,WeatherDisplay:10.37,2013-07-26 01:40:00,
2013-07-25 21:45:00,64.1,62.6,29.97,NNE,23,2.0,6.0,95,0.02,RA,RA,0.05,0.0,WeatherDisplay:10.37,2013-07-26 01:45:00,
2013-07-25 21:50:00,64.1,62.6,29.97,NE,35,1.0,6.0,95,0.01,RA,RA,0.05,0.0,WeatherDisplay:10.37,2013-07-26 01:50:00,
2013-07-25 21:55:00,64.1,62.6,29.97,NNE,30,1.0,6.0,95,0.00,OVC,OVC,0.05,0.0,WeatherDisplay:10.37,2013-07-26 01:55:00,
2013-07-25 22:00:00,64.1,62.6,29.97,North,8,2.0,5.0,95,0.00,OVC,OVC,0.05,0.0,WeatherDisplay:10.37,2013-07-26 02:00:00,
2013-07-25 22:05:00,64.2,62.7,29.97,NNE,19,1.0,9.0,95,0.00,-RA,-RA,0.05,0.0,WeatherDisplay:10.37,2013-07-26 02:05:00,
2013-07-25 22:10:00,64.2,62.7,29.97,NNE,23,3.0,7.0,95,0.00,-RA,-RA,0.05,0.0,WeatherDisplay:10.37,2013-07-26 02:10:00,
2013-07-25 22:15:00,64.2,62.7,29.96,NNE,30,3.0,7.0,95,0.01,-RA,-RA,0.06,0.0,WeatherDisplay:10.37,2013-07-26 02:15:00,
2013-07-25 22:20:00,64.2,63.1,29.96,NE,35,3.0,9.0,96,0.01,-RA,-RA,0.06,0.0,WeatherDisplay:10.37,2013-07-26 02:20:00,
2013-07-25 22:25:00,64.3,63.1,29.96,NE,39,5.0,12.0,96,0.00,-RA,-RA,0.06,0.0,WeatherDisplay:10.37,2013-07-26 02:25:00,
2013-07-25 22:30:00,64.3,63.2,29.96,NE,49,3.0,6.0,96,0.00,-RA,-RA,0.06,0.0,WeatherDisplay:10.37,2013-07-26 02:30:00,
2013-07-25 22:35:00,64.4,63.2,29.96,NE,40,1.0,6.0,96,0.01,-RA,-RA,0.07,0.0,WeatherDisplay:10.37,2013-07-26 02:35:00,
2013-07-25 22:40:00,64.5,63.3,29.96,NE,36,3.0,9.0,96,0.01,-RA,-RA,0.07,0.0,WeatherDisplay:10.37,2013-07-26 02:40:00,
2013-07-25 22:45:00,64.5,63.3,29.96,NE,37,1.0,9.0,96,0.00,-RA,-RA,0.07,0.0,WeatherDisplay:10.37,2013-07-26 02:45:00,
2013-07-25 22:50:00,64.6,63.4,29.96,NE,44,1.0,7.0,96,0.00,-RA,-RA,0.07,0.0,WeatherDisplay:10.37,2013-07-26 02:50:00,
2013-07-25 22:55:00,64.7,63.5,29.96,NE,55,1.0,7.0,96,0.01,-RA,-RA,0.08,0.0,WeatherDisplay:10.37,2013-07-26 02:55:00,
2013-07-25 23:00:00,64.7,63.5,29.96,NNE,33,2.0,6.0,96,0.00,-RA,-RA,0.09,0.0,WeatherDisplay:10.37,2013-07-26 03:00:00,
2013-07-25 23:05:00,64.7,63.5,29.96,NE,39,2.0,10.0,96,0.04, +RA, +RA,0.12,0.0,WeatherDisplay:10.37,2013-07-26 03:05:00,
2013-07-25 23:10:00,64.7,63.5,29.96,NE,40,2.0,5.0,96,0.04, +RA, +RA,0.13,0.0,WeatherDisplay:10.37,2013-07-26 03:10:00,
2013-07-25 23:15:00,64.8,63.6,29.96,NNE,26,2.0,7.0,96,0.01, +RA, +RA,0.13,0.0,WeatherDisplay:10.37,2013-07-26 03:15:00,
2013-07-25 23:20:00,64.8,63.6,29.96,NE,47,1.0,6.0,96,0.00, +RA, +RA,0.13,0.0,WeatherDisplay:10.37,2013-07-26 03:20:00,
2013-07-25 23:25:00,64.9,63.7,29.96,ENE,60,2.0,10.0,96,0.01, +RA, +RA,0.14,0.0,WeatherDisplay:10.37,2013-07-26 03:25:00,
2013-07-25 23:30:00,65.0,63.8,29.96,NE,34,2.0,12.0,96,0.01, +RA, +RA,0.15,0.0,WeatherDisplay:10.37,2013-07-26 03:30:00,
2013-07-25 23:35:00,65.0,63.8,29.95,NE,38,1.0,9.0,96,0.01, +RA, +RA,0.15,0.0,WeatherDisplay:10.37,2013-07-26 03:35:00,
2013-07-25 23:40:00,65.1,63.9,29.95,NE,44,2.0,9.0,96,0.01, +RA, +RA,0.15,0.0,WeatherDisplay:10.37,2013-07-26 03:40:00,
2013-07-25 23:45:00,65.0,63.9,29.95,NE,42,1.0,9.0,96,0.01, +RA, +RA,0.16,0.0,WeatherDisplay:10.37,2013-07-26 03:45:00,
2013-07-25 23:50:00,65.1,63.9,29.94,NE,49,2.0,10.0,96,0.02, +RA, +RA,0.17,0.0,WeatherDisplay:10.37,2013-07-26 03:50:00,
2013-07-25 23:55:00,65.2,64.0,29.94,NE,43,2.0,9.0,96,0.01, +RA, +RA,0.17,0.0,WeatherDisplay:10.37,2013-07-26 03:55:00,